Time,TemperatureF,DewpointF,PressureIn,WindDirection,WindDirectionDegrees,WindSpeedMPH,WindSpeedGustMPH,Humidity,HourlyPrecipIn,Conditions,Clouds,dailyrainin,SoftwareType,DateUTC
2013-03-27 00:00:00,45.1,35.2,30.22,NW,318,0.0,0.0,68,0.00,,---,0.00,VWS V13.01,2013-03-27 04:00:00,
2013-03-27 00:30:00,44.6,35.4,30.23,NW,321,0.0,0.0,70,0.00,,---,0.00,VWS V13.01,2013-03-27 04:30:00,
2013-03-27 00:39:00,44.6,35.4,30.23,NW,321,0.0,2.0,70,0.00,,---,0.00,VWS V13.01,2013-03-27 04:39:00,
2013-03-27 01:00:00,44.0,35.6,30.23,NW,324,0.0,0.0,72,0.00,,---,0.00,VWS V13.01,2013-03-27 05:00:00,
2013-03-27 01:09:00,44.0,35.6,30.23,NW,323,0.0,4.0,72,0.00,,---,0.00,VWS V13.01,2013-03-27 05:09:00,
2013-03-27 01:30:00,43.1,35.0,30.22,NW,324,0.0,0.0,73,0.00,,---,0.00,VWS V13.01,2013-03-27 05:30:00,
2013-03-27 01:39:00,43.1,35.0,30.22,NW,324,0.0,0.0,73,0.00,,---,0.00,VWS V13.01,2013-03-27 05:39:00,
2013-03-27 02:00:00,42.6,35.2,30.21,NNW,337,0.0,0.0,75,0.00,,---,0.00,VWS V13.01,2013-03-27 06:00:00,
2013-03-27 02:09:00,42.5,35.2,30.21,NNW,337,0.0,4.0,75,0.00,,---,0.00,VWS V13.01,2013-03-27 06:09:00,
2013-03-27 02:30:00,42.5,35.8,30.21,North,355,0.0,0.0,77,0.00,,---,0.00,VWS V13.01,2013-03-27 06:30:00,
2013-03-27 02:39:00,42.5,35.8,30.21,North,355,0.0,6.0,77,0.00,,---,0.00,VWS V13.01,2013-03-27 06:39:00,
2013-03-27 03:00:00,42.8,35.8,30.21,North,9,4.0,5.0,76,0.00,,---,0.00,VWS V13.01,2013-03-27 07:00:00,
2013-03-27 03:09:00,42.8,35.8,30.21,North,360,4.0,10.0,76,0.00,,---,0.00,VWS V13.01,2013-03-27 07:09:00,
2013-03-27 03:30:00,42.8,35.1,30.21,NNW,345,5.0,5.0,74,0.00,,---,0.00,VWS V13.01,2013-03-27 07:30:00,
2013-03-27 03:39:00,42.8,35.1,30.20,NNE,13,2.0,11.0,74,0.00,,---,0.00,VWS V13.01,2013-03-27 07:39:00,
2013-03-27 04:00:00,42.4,34.4,30.21,NNE,13,4.0,4.0,73,0.00,,---,0.00,VWS V13.01,2013-03-27 08:00:00,
2013-03-27 04:09:00,42.4,34.4,30.21,North,360,1.0,10.0,73,0.00,,---,0.00,VWS V13.01,2013-03-27 08:09:00,
2013-03-27 04:30:00,41.5,33.8,30.22,North,360,1.0,2.0,74,0.00,,---,0.00,VWS V13.01,2013-03-27 08:30:00,
2013-03-27 04:39:00,41.5,33.8,30.22,North,360,2.0,9.0,74,0.00,,---,0.00,VWS V13.01,2013-03-27 08:39:00,
2013-03-27 05:00:00,40.7,33.4,30.22,North,355,0.0,0.0,75,0.00,,---,0.00,VWS V13.01,2013-03-27 09:00:00,
2013-03-27 05:09:00,40.7,33.4,30.22,North,355,0.0,5.0,75,0.00,,---,0.00,VWS V13.01,2013-03-27 09:09:00,
2013-03-27 05:30:00,40.0,33.4,30.22,North,355,2.0,5.0,77,0.00,,---,0.00,VWS V13.01,2013-03-27 09:30:00,
2013-03-27 05:39:00,40.0,33.4,30.22,North,350,5.0,7.0,77,0.00,,---,0.00,VWS V13.01,2013-03-27 09:39:00,
2013-03-27 06:00:00,39.9,33.0,30.22,North,360,3.0,5.0,76,0.00,,---,0.00,VWS V13.01,2013-03-27 10:00:00,
2013-03-27 06:09:00,39.9,33.0,30.22,North,360,4.0,8.0,76,0.00,,---,0.00,VWS V13.01,2013-03-27 10:09:00,
2013-03-27 06:30:00,39.8,32.5,30.22,North,350,3.0,4.0,75,0.00,,---,0.00,VWS V13.01,2013-03-27 10:30:00,
2013-03-27 06:39:00,39.8,32.5,30.22,North,360,3.0,9.0,75,0.00,,---,0.00,VWS V13.01,2013-03-27 10:39:00,
2013-03-27 07:00:00,39.7,32.1,30.24,NNE,14,4.0,4.0,74,0.00,,---,0.00,VWS V13.01,2013-03-27 11:00:00,
2013-03-27 07:09:00,39.7,32.1,30.24,North,11,2.0,10.0,74,0.00,,---,0.00,VWS V13.01,2013-03-27 11:09:00,
2013-03-27 07:30:00,39.6,32.0,30.25,NNW,348,4.0,6.0,74,0.00,,---,0.00,VWS V13.01,2013-03-27 11:30:00,
2013-03-27 07:39:00,39.6,32.0,30.25,NNE,15,5.0,10.0,74,0.00,,---,0.00,VWS V13.01,2013-03-27 11:39:00,
2013-03-27 08:00:00,40.3,32.3,30.26,North,349,3.0,4.0,73,0.00,,---,0.00,VWS V13.01,2013-03-27 12:00:00,
2013-03-27 08:09:00,40.2,32.2,30.26,North,349,2.0,12.0,73,0.00,,---,0.00,VWS V13.01,2013-03-27 12:09:00,
2013-03-27 08:30:00,42.7,33.6,30.26,North,360,7.0,7.0,70,0.00,,---,0.00,VWS V13.01,2013-03-27 12:30:00,
2013-03-27 08:39:00,42.6,33.5,30.26,North,360,4.0,11.0,70,0.00,,---,0.00,VWS V13.01,2013-03-27 12:39:00,
2013-03-27 09:00:00,44.5,33.9,30.27,NNE,21,3.0,6.0,66,0.00,,---,0.00,VWS V13.01,2013-03-27 13:00:00,
2013-03-27 09:09:00,44.5,33.9,30.27,North,355,6.0,17.0,66,0.00,,---,0.00,VWS V13.01,2013-03-27 13:09:00,
2013-03-27 09:30:00,47.9,34.7,30.28,NE,42,7.0,13.0,60,0.00,,---,0.00,VWS V13.01,2013-03-27 13:30:00,
2013-03-27 09:39:00,47.9,34.7,30.28,North,351,5.0,18.0,60,0.00,,---,0.00,VWS V13.01,2013-03-27 13:39:00,
2013-03-27 10:00:00,51.2,34.2,30.28,North,355,3.0,9.0,52,0.00,,---,0.00,VWS V13.01,2013-03-27 14:00:00,
2013-03-27 10:09:00,51.1,34.1,30.28,North,360,9.0,17.0,52,0.00,,---,0.00,VWS V13.01,2013-03-27 14:09:00,
2013-03-27 10:30:00,53.6,33.9,30.29,NNE,14,10.0,10.0,47,0.00,,---,0.00,VWS V13.01,2013-03-27 14:30:00,
2013-03-27 10:39:00,53.6,33.9,30.29,NNW,342,2.0,18.0,47,0.00,,---,0.00,VWS V13.01,2013-03-27 14:39:00,
2013-03-27 11:00:00,54.6,33.7,30.29,NE,46,6.0,12.0,45,0.00,,---,0.00,VWS V13.01,2013-03-27 15:00:00,
2013-03-27 11:09:00,54.6,33.1,30.29,NNE,32,12.0,19.0,44,0.00,,---,0.00,VWS V13.01,2013-03-27 15:09:00,
2013-03-27 11:30:00,55.8,31.9,30.29,ENE,65,3.0,4.0,40,0.00,,---,0.00,VWS V13.01,2013-03-27 15:30:00,
2013-03-27 11:39:00,55.8,31.9,30.29,NE,45,3.0,20.0,40,0.00,,---,0.00,VWS V13.01,2013-03-27 15:39:00,
2013-03-27 12:00:00,56.9,30.9,30.28,NNW,327,4.0,14.0,37,0.00,,---,0.00,VWS V13.01,2013-03-27 16:00:00,
2013-03-27 12:30:00,58.6,31.8,30.27,North,355,5.0,7.0,36,0.00,,---,0.00,VWS V13.01,2013-03-27 16:30:00,
2013-03-27 12:39:00,58.6,31.8,30.27,NNW,348,6.0,18.0,36,0.00,,---,0.00,VWS V13.01,2013-03-27 16:39:00,
2013-03-27 13:00:00,59.3,30.2,30.26,NNE,24,4.0,4.0,33,0.00,,---,0.00,VWS V13.01,2013-03-27 17:00:00,
2013-03-27 13:09:00,59.4,30.3,30.26,NE,46,0.0,17.0,33,0.00,,---,0.00,VWS V13.01,2013-03-27 17:09:00,
2013-03-27 13:30:00,59.9,30.8,30.25,NNE,22,9.0,11.0,33,0.00,,---,0.00,VWS V13.01,2013-03-27 17:30:00,
2013-03-27 13:39:00,59.8,30.7,30.25,North,360,4.0,18.0,33,0.00,,---,0.00,VWS V13.01,2013-03-27 17:39:00,
2013-03-27 14:00:00,60.5,30.5,30.24,NNW,340,5.0,5.0,32,0.00,,---,0.00,VWS V13.01,2013-03-27 18:00:00,
2013-03-27 14:09:00,60.5,30.5,30.24,West,280,0.0,14.0,32,0.00,,---,0.00,VWS V13.01,2013-03-27 18:09:00,
2013-03-27 14:30:00,61.4,31.3,30.23,NNW,334,5.0,9.0,32,0.00,,---,0.00,VWS V13.01,2013-03-27 18:30:00,
2013-03-27 14:39:00,61.4,31.3,30.23,NW,309,9.0,20.0,32,0.00,,---,0.00,VWS V13.01,2013-03-27 18:39:00,
2013-03-27 15:00:00,62.9,31.0,30.21,East,86,0.0,4.0,30,0.00,,---,0.00,VWS V13.01,2013-03-27 19:00:00,
2013-03-27 15:09:00,62.9,31.0,30.22,East,80,3.0,15.0,30,0.00,,---,0.00,VWS V13.01,2013-03-27 19:09:00,
2013-03-27 15:30:00,63.4,32.3,30.20,North,355,5.0,5.0,31,0.00,,---,0.00,VWS V13.01,2013-03-27 19:30:00,
2013-03-27 15:39:00,63.3,31.4,30.20,NNW,332,0.0,13.0,30,0.00,,---,0.00,VWS V13.01,2013-03-27 19:39:00,
2013-03-27 16:00:00,65.2,33.0,30.19,NE,38,1.0,1.0,30,0.00,,---,0.00,VWS V13.01,2013-03-27 20:00:00,
2013-03-27 16:10:00,65.2,33.0,30.19,ENE,62,0.0,17.0,30,0.00,,---,0.00,VWS V13.01,2013-03-27 20:10:00,
2013-03-27 16:30:00,64.4,30.6,30.19,NNE,13,7.0,10.0,28,0.00,,---,0.00,VWS V13.01,2013-03-27 20:30:00,
2013-03-27 16:39:00,64.5,30.7,30.19,North,355,3.0,14.0,28,0.00,,---,0.00,VWS V13.01,2013-03-27 20:39:00,
2013-03-27 17:00:00,62.3,40.1,30.19,ESE,122,10.0,12.0,44,0.00,,---,0.00,VWS V13.01,2013-03-27 21:00:00,
2013-03-27 17:30:00,60.2,40.5,30.20,East,84,3.0,5.0,48,0.00,,---,0.00,VWS V13.01,2013-03-27 21:30:00,
2013-03-27 17:39:00,60.2,40.5,30.20,East,100,3.0,14.0,48,0.00,,---,0.00,VWS V13.01,2013-03-27 21:39:00,
2013-03-27 18:00:00,59.8,41.7,30.21,ENE,67,4.0,6.0,51,0.00,,---,0.00,VWS V13.01,2013-03-27 22:00:00,
2013-03-27 18:10:00,59.9,41.8,30.21,East,80,5.0,12.0,51,0.00,,---,0.00,VWS V13.01,2013-03-27 22:10:00,
2013-03-27 18:30:00,58.9,42.3,30.21,East,87,2.0,3.0,54,0.00,,---,0.00,VWS V13.01,2013-03-27 22:30:00,
2013-03-27 18:40:00,58.9,41.8,30.21,East,80,2.0,9.0,53,0.00,,---,0.00,VWS V13.01,2013-03-27 22:40:00,
2013-03-27 19:00:00,57.5,42.4,30.22,SE,126,0.0,0.0,57,0.00,,---,0.00,VWS V13.01,2013-03-27 23:00:00,
2013-03-27 19:10:00,57.5,42.4,30.21,SE,126,0.0,10.0,57,0.00,,---,0.00,VWS V13.01,2013-03-27 23:10:00,
2013-03-27 19:30:00,56.3,42.6,30.22,ENE,75,0.0,0.0,60,0.00,,---,0.00,VWS V13.01,2013-03-27 23:30:00,
2013-03-27 19:40:00,56.3,42.6,30.22,ENE,74,0.0,6.0,60,0.00,,---,0.00,VWS V13.01,2013-03-27 23:40:00,
2013-03-27 20:00:00,55.0,42.7,30.23,East,81,0.0,0.0,63,0.00,,---,0.00,VWS V13.01,2013-03-28 00:00:00,
2013-03-27 20:10:00,55.0,42.7,30.23,East,81,0.0,4.0,63,0.00,,---,0.00,VWS V13.01,2013-03-28 00:10:00,
2013-03-27 20:30:00,53.7,43.0,30.23,East,81,0.0,0.0,67,0.00,,---,0.00,VWS V13.01,2013-03-28 00:30:00,
2013-03-27 20:40:00,53.7,43.0,30.23,East,80,0.0,0.0,67,0.00,,---,0.00,VWS V13.01,2013-03-28 00:40:00,
2013-03-27 21:00:00,51.0,42.3,30.24,East,80,0.0,0.0,72,0.00,,---,0.00,VWS V13.01,2013-03-28 01:00:00,
2013-03-27 21:10:00,51.0,42.3,30.23,East,81,0.0,0.0,72,0.00,,---,0.00,VWS V13.01,2013-03-28 01:10:00,
2013-03-27 21:30:00,49.6,41.7,30.24,East,80,0.0,0.0,74,0.00,,---,0.00,VWS V13.01,2013-03-28 01:30:00,
2013-03-27 21:40:00,49.7,41.8,30.24,East,81,0.0,0.0,74,0.00,,---,0.00,VWS V13.01,2013-03-28 01:40:00,
2013-03-27 22:00:00,48.7,41.8,30.24,East,81,0.0,0.0,77,0.00,,---,0.00,VWS V13.01,2013-03-28 02:00:00,
2013-03-27 22:10:00,48.7,41.8,30.24,East,81,0.0,0.0,77,0.00,,---,0.00,VWS V13.01,2013-03-28 02:10:00,
2013-03-27 22:30:00,47.1,40.9,30.25,East,81,0.0,0.0,79,0.00,,---,0.00,VWS V13.01,2013-03-28 02:30:00,
2013-03-27 22:40:00,47.2,41.0,30.25,East,81,0.0,0.0,79,0.00,,---,0.00,VWS V13.01,2013-03-28 02:40:00,
2013-03-27 23:00:00,46.0,40.5,30.26,East,81,0.0,0.0,81,0.00,,---,0.00,VWS V13.01,2013-03-28 03:00:00,
2013-03-27 23:10:00,46.0,40.5,30.25,East,80,0.0,0.0,81,0.00,,---,0.00,VWS V13.01,2013-03-28 03:10:00,
2013-03-27 23:30:00,44.9,39.8,30.25,East,81,0.0,0.0,82,0.00,,---,0.00,VWS V13.01,2013-03-28 03:30:00,